This demonstration page uses our WeatherBlox Daily Observations layout. Learn more.

Left ArrowRight Arrow

Hourly Observations for July 5, 2016

Temp ( °F °C ) Dew Point ( °F °C ) Humidity (%) Winds ( mph kmh ) Pressure ( in mb ) Visibility ( mi km ) Precip ( " mm )
12:51 am 00:51 Clear 79 26.1 52 11.1 39 39 Calm 29.80 1009 10 16 0.00 0.00
1:51 am 01:51 Clear 77 25 52 11.1 42 42 Calm 29.80 1009 10 16 0.00 0.00
2:51 am 02:51 Clear 80 26.7 50 10 35 35 N 9 15 29.80 1009 10 16 0.00 0.00
3:51 am 03:51 Clear 74 23.3 53 11.7 48 48 Calm 29.82 1010 10 16 0.00 0.00
4:51 am 04:51 Clear 76 24.4 51 10.6 42 42 SSW 5 7 29.83 1010 10 16 0.00 0.00
5:51 am 05:51 Sunny 72 22.2 55 12.8 55 55 E 6 9 29.85 1011 10 16 0.00 0.00
6:51 am 06:51 Sunny 79 26.1 52 11.1 39 39 S 5 7 29.86 1011 10 16 0.00 0.00
7:51 am 07:51 Sunny 83 28.3 51 10.6 33 33 S 5 7 29.88 1012 10 16 0.00 0.00
8:51 am 08:51 Sunny 91 32.8 49 9.4 24 24 W 9 15 29.86 1011 10 16 0.00 0.00
9:51 am 09:51 Sunny 95 35 44 6.7 17 17 WNW 8 13 29.85 1011 10 16 0.00 0.00
10:51 am 10:51 Sunny 97 36.1 44 6.7 16 16 WNW 13 20 29.84 1011 10 16 0.00 0.00
11:51 am 11:51 Sunny 99 37.2 43 6.1 15 15 W 7 11 29.83 1010 10 16 0.00 0.00
12:51 pm 12:51 Sunny 100 37.8 44 6.7 15 15 undefined N/A 29.81 1009 10 16 0.00 0.00
1:51 pm 13:51 Mostly Sunny 101 38.3 45 7.2 15 15 N 10 17 29.79 1009 10 16 0.00 0.00
2:51 pm 14:51 Partly Cloudy 104 40 47 8.3 15 15 WNW 21 33 29.76 1008 10 16 0.00 0.00
3:51 pm 15:51 Sunny 101 38.3 47 8.3 16 16 WNW 18 30 29.75 1007 10 16 0.00 0.00
4:51 pm 16:51 Mostly Sunny 101 38.3 45 7.2 15 15 NW 18 30 29.73 1007 10 16 0.00 0.00
5:51 pm 17:51 Sunny 100 37.8 42 5.6 14 14 WNW 22 35 29.72 1007 10 16 0.00 0.00
6:51 pm 18:51 Sunny 98 36.7 38 3.3 12 12 WNW 13 20 29.72 1006 10 16 0.00 0.00
7:51 pm 19:51 Clear 93 33.9 39 3.9 15 15 WNW 10 17 29.74 1007 10 16 0.00 0.00
8:51 pm 20:51 Clear 87 30.6 40 4.4 19 19 NW 9 15 29.76 1008 10 16 0.00 0.00
9:51 pm 21:51 Clear 87 30.6 41 5 20 20 WNW 14 22 29.77 1008 10 16 0.00 0.00
10:51 pm 22:51 Clear 84 28.9 41 5 22 22 NNW 10 17 29.78 1009 10 16 0.00 0.00
11:51 pm 23:51 Clear 83 28.3 41 5 23 23 NW 10 17 29.78 1009 10 16 0.00 0.00

Powered by AerisWeather